sat.trackr.live / text

‹ back to catalog

STARLINK-34326

NORAD 64221 · 2025-117U

PAYLOAD ACTIVE UNKNOWN

§ Identity

Operator
Country
US
Launch date
2025-05-31
Launch site
AFWTR
Launch vehicle
Mass (kg)
RCS (m²)

Purposes: comms

External: N2YO · Heavens-Above · Gunter

§ Orbital elements

Epoch: 2026-05-25T02:17:10.704192Z

Period
94.11 min
Inclination
53.1599°
Eccentricity
0.0001183
Mean motion
15.30202128 rev/d
Perigee alt
474.4 km
Apogee alt
476.0 km
Semi-major
6,853.3 km
B*
2.1828e-4
RAAN
44.7119°
Arg perigee
96.0266°
Mean anomaly
264.0870°
Rev number
5,625

§ Raw data

STARLINK-343261 64221U 25117U   26145.09526278  .00006112  00000+0  21828-3 0  99912 64221  53.1599  44.7119 0001183  96.0266 264.0870 15.30202128 56256

JSON: /api/v1/satellites/64221 · /tle

For live sub-satellite position, see the globe view (requires WebGL).

§ Visibility from observer

Set your observer location to see the next 7 days of passes ≥ 10°. The values pass through the URL so the page stays shareable.

No JS? Fill the form by hand. The geolocation button needs JavaScript.